User: anonymous   Login
Location: Unspecified
(0.0000°N, 0.0000°E)
Time: 10:27:30
(UTC+00:00)
Language:

GOES 5 - Orbit

View from above orbital plane
View from above orbital plane
View from above satellite
View from above satellite

Ground track
Ground track

The orbit data is extracted from the following two-line orbital elements,

1 12472U 81049A   19081.31293043 -.00000006  00000-0  00000+0 0  9998
2 12472  13.7237 338.2451 0004826 328.1930 219.6503  1.00327917 96453
Epoch (UTC): 22 March 2019 07:30:37
Eccentricity: 0.0004826
inclination: 13.7237°
perigee height: 35750 km
apogee height: 35791 km
right ascension of ascending node: 338.2451°
argument of perigee: 328.1930°
revolutions per day: 1.00327917
mean anomaly at epoch: 219.6503°
orbit number at epoch: 9645

The dashed part of the orbit path shows where the satellite is in the earth's shadow,  

DLR